RH
2 2 1 1 1 2 2 3 4 4 4 4 4 7 11 11 11 16 21 20 8 2 10 16 20 24 21 9 2 2 2 2 3 3 3 3 3 2 2 2 2 2 2 3 3 4 4 4 5 5 6 6 6 7 7 8 9 9 11 13 12 11 12 14 18 20 20 17 15 15 16 17 17 17 17 15 14 15 14 13 14 15 14 14 15 15 14 13
1 1 1 1 1 1 2 2 2 2 2 4 6 9 13 12 10 8 12 15 7 1 3 5 7 8 7 4 2 2 2 3 3 3 3 3 3 2 2 2 2 2 2 3 3 3 4 4 4 5 5 5 6 5 6 7 8 9 12 12 11 13 15 17 20 20 20 19 17 17 18 17 16 16 15 14 13 13 12 12 14 14 13 14 16 16 14 13
1 1 1 1 1 1 1 1 1 1 2 3 5 7 7 6 6 4 5 6 3 3 3 2 3 2 2 2 2 2 2 2 3 4 5 3 3 2 2 2 2 3 3 3 3 3 4 4 4 4 4 4 4 5 5 5 7 8 10 11 12 15 18 18 20 20 20 19 17 16 16 15 16 17 16 15 12 9 12 14 15 14 13 14 17 19 19 18
1 1 1 1 1 1 1 1 1 1 1 2 2 3 3 3 3 2 3 4 3 2 3 3 3 3 3 3 3 3 2 3 4 6 7 5 3 2 2 2 2 2 2 3 3 3 3 4 4 4 4 4 4 4 5 6 8 9 11 13 16 18 18 19 20 20 19 18 16 16 15 13 13 14 13 13 10 9 13 16 16 13 12 12 14 17 19 19
1 1 1 1 1 1 1 1 1 1 1 2 1 2 2 2 2 2 3 3 3 3 3 3 3 4 3 3 3 3 3 3 5 5 6 5 3 2 2 2 2 2 2 3 3 3 3 3 4 4 4 6 8 9 10 11 13 14 15 17 19 20 19 19 20 19 19 18 16 14 12 9 8 9 9 10 10 13 16 15 13 11 10 10 9 10 12 13
1 2 2 1 2 1 2 2 2 2 1 1 2 2 2 2 2 2 3 3 3 3 4 4 4 4 3 4 3 2 3 3 4 4 4 4 2 2 2 2 2 2 2 3 5 6 6 7 8 9 10 13 15 16 16 17 17 17 17 18 20 19 17 18 21 22 21 17 11 9 7 7 8 7 7 8 11 15 14 12 10 8 8 8 8 7 7 7
2 2 2 2 2 2 2 2 2 2 2 2 2 2 2 3 3 3 3 3 3 4 4 4 4 4 4 3 3 3 3 3 4 4 4 3 2 2 2 2 2 3 6 9 13 15 15 15 16 16 16 17 18 17 17 17 16 16 16 17 18 17 17 20 24 23 18 11 7 6 5 7 9 7 6 8 11 12 10 9 9 9 8 9 9 9 9 8
3 3 3 3 3 3 3 3 3 3 3 3 3 3 3 3 3 3 3 3 4 4 4 5 4 4 3 3 3 3 4 4 3 3 3 2 2 2 3 6 10 12 15 17 18 17 16 15 15 16 15 15 15 14 13 13 12 13 12 13 14 15 17 19 17 13 10 7 5 5 5 7 9 8 7 9 11 11 12 14 14 14 14 14 15 14 13 13
4 4 4 4 4 4 4 3 3 3 3 3 3 3 3 3 3 2 3 4 5 5 5 5 4 4 3 3 3 3 4 3 2 2 3 3 6 9 12 15 17 16 16 16 14 12 11 11 12 12 11 11 10 9 9 8 9 10 9 8 9 10 11 10 8 7 6 5 4 4 4 6 8 8 9 12 13 14 17 19 17 16 17 19 19 17 16 15
4 4 4 4 4 4 4 4 4 4 3 3 3 3 2 2 3 4 6 7 7 7 6 5 4 4 3 3 4 4 5 5 7 9 11 13 15 16 16 14 13 11 10 10 8 8 8 9 9 9 9 9 7 7 8 7 7 8 7 6 6 6 6 6 5 5 5 5 4 3 3 6 8 11 13 15 15 16 17 17 14 16 19 21 20 18 17 15
4 4 4 4 5 5 5 5 5 4 4 4 3 3 4 5 6 9 10 10 9 8 7 5 5 4 4 6 8 8 11 14 16 17 17 17 14 12 11 10 9 8 7 7 7 7 8 9 8 7 7 7 6 7 7 6 6 7 5 5 6 4 4 5 5 5 4 4 4 2 3 6 10 15 17 17 16 14 15 15 16 19 20 21 20 18 17 16
4 4 4 4 5 5 5 5 5 5 5 5 5 6 9 11 12 13 12 10 9 7 6 6 7 8 10 13 13 13 16 18 16 15 13 11 9 7 8 8 8 7 8 9 9 7 7 8 7 5 6 6 6 7 6 5 6 5 3 5 6 4 4 4 4 4 4 5 4 3 3 4 10 18 19 18 17 15 16 18 20 21 21 21 21 18 17 16
4 4 5 5 5 5 6 6 6 7 7 8 10 13 15 15 14 12 10 9 9 9 9 11 14 15 15 15 14 14 13 12 10 10 8 8 8 8 8 8 8 9 10 11 11 8 5 5 5 4 4 5 5 5 5 5 5 3 4 6 4 2 3 3 3 4 5 6 4 5 5 3 8 16 17 16 18 18 19 22 24 23 22 21 20 18 17 17
4 5 5 5 6 7 9 9 10 10 11 13 15 17 15 13 13 12 13 12 12 14 16 17 17 16 14 12 11 10 10 9 9 8 8 8 8 8 8 9 9 10 11 12 11 7 5 4 4 4 3 3 4 3 3 4 4 2 5 7 2 1 3 2 3 3 4 5 4 5 6 5 10 15 15 14 16 19 20 25 26 23 23 22 20 18 16 19
6 6 7 8 10 12 13 14 14 15 15 16 16 16 14 14 16 18 19 18 17 18 19 18 15 12 10 10 10 10 11 11 11 10 10 9 8 8 7 6 7 8 10 12 9 6 5 4 3 4 3 3 3 3 3 4 3 2 3 4 2 2 3 2 3 3 3 4 4 6 5 6 15 19 14 12 15 17 19 26 26 23 24 23 20 17 15 18
10 11 12 14 16 17 17 17 17 17 16 16 16 17 18 19 21 22 22 21 20 18 16 14 12 11 10 10 11 11 11 11 10 10 10 10 9 7 6 5 6 6 8 10 8 6 6 4 4 3 3 2 3 3 3 3 3 3 3 3 3 3 2 3 4 3 4 3 4 7 6 5 15 20 14 12 15 15 19 24 26 24 23 22 20 18 15 14
16 18 19 20 21 20 20 19 17 16 15 16 18 20 21 22 22 21 20 18 17 15 13 12 11 10 9 10 10 9 10 9 9 9 8 8 7 7 6 5 5 6 8 9 8 7 6 5 3 3 3 2 3 3 3 5 4 4 4 4 3 3 4 5 4 4 5 4 4 6 5 4 13 19 16 15 15 13 16 21 24 25 23 22 21 19 17 17
22 23 24 24 23 22 21 18 16 16 18 19 21 22 23 23 21 19 17 15 13 12 11 10 10 10 9 9 9 9 9 8 8 7 7 6 5 6 5 5 6 6 7 9 8 7 7 5 3 3 3 3 3 3 5 9 8 7 6 5 4 4 5 6 6 7 7 6 6 6 5 5 12 19 18 16 13 13 16 20 24 25 24 23 22 21 20 22
26 26 24 23 22 21 20 19 20 21 22 22 23 24 24 22 18 14 13 12 11 10 10 10 8 8 9 9 8 8 7 7 6 5 6 6 5 4 4 6 6 5 6 8 7 7 8 5 3 3 3 4 4 4 7 8 8 8 7 7 6 6 8 8 9 9 9 8 6 7 7 5 13 20 17 12 12 16 19 22 25 25 24 25 25 24 22 24
25 24 22 21 21 21 21 22 22 22 23 24 23 22 20 17 13 11 11 10 9 11 13 13 11 9 9 8 7 6 5 6 5 4 4 4 4 4 4 5 5 4 6 7 7 8 8 5 3 3 3 5 6 6 7 7 8 8 8 9 7 8 10 10 10 10 10 10 7 9 8 8 17 20 13 11 12 14 17 22 26 27 27 28 29 28 25 25
23 22 21 20 21 21 22 21 20 21 21 20 18 15 13 12 11 10 9 8 8 9 10 10 12 12 9 7 5 4 4 5 4 3 3 3 3 4 5 5 5 5 6 7 7 8 8 4 3 4 4 5 6 6 7 8 9 8 9 11 9 11 12 10 12 10 11 12 9 9 9 12 19 17 11 11 12 14 17 24 29 29 29 30 31 31 28 28
22 21 21 22 21 21 20 18 17 17 16 15 13 12 12 11 10 9 8 8 8 8 8 7 7 10 10 6 3 3 3 4 4 3 3 3 3 3 4 5 5 6 7 8 7 6 6 5 4 6 6 7 7 8 8 9 10 10 11 12 12 12 12 11 12 11 12 12 10 11 14 16 16 14 14 12 12 22 29 32 34 33 31 29 29 31 30 28
21 21 22 21 20 18 16 15 14 13 14 13 13 12 11 10 9 8 7 7 7 7 7 6 4 6 8 7 4 3 3 3 4 3 3 4 3 3 4 5 6 7 10 10 7 5 5 5 6 8 10 9 9 9 10 10 11 11 12 13 13 14 16 16 12 12 12 12 12 13 15 17 16 15 16 14 15 28 39 40 39 38 37 38 39 38 36 33
20 20 20 18 16 15 14 13 13 13 14 13 12 10 9 9 8 7 5 6 7 6 6 6 4 4 6 8 7 4 3 3 4 4 4 4 4 4 4 5 7 9 12 13 8 6 5 6 7 10 13 12 11 11 11 12 12 12 13 14 15 15 17 17 13 11 10 13 15 14 16 18 16 16 16 15 18 25 33 35 35 36 39 46 49 47 44 43
19 18 17 16 15 14 13 13 13 14 14 12 11 9 11 14 14 11 7 5 6 6 6 6 6 5 5 6 8 8 6 3 4 5 5 5 5 5 5 5 6 8 12 14 11 9 7 7 8 11 14 14 14 13 12 14 13 13 14 14 16 16 16 14 12 11 10 15 15 17 30 27 13 14 18 18 20 21 22 24 28 32 36 42 46 48 50 51
18 17 16 16 16 15 14 14 14 14 13 11 10 12 16 18 18 16 12 7 6 6 6 6 6 7 6 5 7 9 8 5 5 6 6 7 6 6 6 7 7 7 10 12 13 12 11 10 9 10 14 15 15 14 14 16 15 15 15 14 17 17 15 13 11 12 14 17 14 18 35 33 18 18 21 18 22 27 26 26 29 34 38 44 50 54 56 55
18 17 17 17 16 16 15 14 13 13 12 12 13 15 18 17 17 18 15 10 8 7 6 6 6 7 6 5 5 6 7 7 6 7 7 8 8 7 7 8 9 9 10 10 11 12 13 13 11 12 15 15 15 15 15 16 16 16 14 15 16 14 13 11 9 13 15 16 15 15 29 38 30 22 20 20 25 31 33 34 38 41 45 51 57 59 59 59
17 16 16 15 15 14 13 13 13 12 13 14 15 16 16 14 14 14 14 14 12 8 8 8 7 6 6 6 6 6 7 7 7 8 8 8 8 8 8 9 10 10 11 11 11 11 13 13 12 14 15 15 15 16 15 15 16 13 13 16 15 12 11 9 10 14 16 20 20 14 26 41 33 20 20 24 25 31 38 44 50 54 56 59 61 62 61 61
15 15 14 14 14 13 12 13 13 13 14 15 16 16 15 13 10 8 10 13 12 8 7 7 7 7 7 7 7 7 7 8 8 9 9 8 9 9 9 9 10 11 11 12 12 13 13 13 14 14 15 14 14 14 13 13 13 11 12 14 12 10 8 7 13 15 16 27 24 14 25 39 32 20 21 27 32 41 51 58 63 65 66 66 65 65 65 64
14 14 14 14 14 13 13 13 13 14 15 16 16 15 15 15 12 10 14 14 11 8 6 5 7 7 7 8 7 8 8 8 9 9 9 9 9 9 9 10 10 11 11 11 13 13 14 14 14 15 15 14 13 13 12 11 12 12 13 12 8 8 9 11 16 15 19 29 22 13 21 33 37 36 35 42 54 62 66 68 71 70 71 71 71 71 70 69
14 14 14 13 13 13 13 12 13 13 14 14 13 12 13 14 11 12 18 17 10 6 5 6 8 8 8 8 8 8 8 8 9 9 9 9 9 9 10 11 12 12 12 12 12 13 14 14 13 14 14 12 12 11 10 10 11 14 16 14 11 12 14 17 20 18 24 29 19 15 22 30 42 51 51 57 68 73 74 75 75 77 77 77 76 74 73 71
14 13 13 13 12 12 11 11 12 11 11 11 10 11 10 9 9 14 19 17 11 7 6 8 8 8 9 8 8 8 8 9 9 9 10 9 10 10 11 13 14 15 16 16 15 12 12 14 13 14 12 11 11 9 8 8 10 17 18 15 26 37 35 31 31 32 33 28 19 22 32 36 42 51 56 61 68 72 76 78 80 81 81 80 77 74 71 67
12 11 11 11 11 11 10 10 10 9 8 7 7 8 6 6 11 15 15 13 9 7 7 8 9 9 9 8 9 9 8 9 9 9 10 10 11 11 13 14 15 17 17 19 20 15 12 13 12 13 12 10 11 11 11 10 12 21 22 22 39 57 56 47 45 48 43 31 24 31 42 46 49 55 57 60 69 73 76 80 84 85 85 83 78 70 62 54
8 7 7 7 8 8 7 6 6 5 5 4 4 4 4 7 12 11 9 7 7 7 8 9 9 9 9 8 9 9 8 9 9 9 10 10 11 11 13 15 16 17 17 19 24 23 19 17 13 12 13 11 11 13 14 14 15 22 23 26 37 46 52 57 56 53 48 42 38 40 45 48 54 63 65 64 70 76 80 85 86 85 82 80 76 68 57 47
5 5 5 5 5 4 4 3 4 3 3 4 4 4 4 9 12 9 7 7 7 8 9 9 9 9 9 9 9 9 9 9 8 9 9 10 12 12 13 16 17 18 17 19 24 26 23 16 11 12 12 11 12 12 14 14 16 22 24 26 32 34 42 54 53 47 51 63 63 50 44 44 46 55 59 61 70 80 88 87 79 70 67 72 76 68 55 43
4 4 4 3 3 3 3 3 3 3 4 4 4 5 6 9 11 9 9 9 8 8 9 9 9 8 8 8 8 8 9 9 8 9 9 10 12 13 14 17 18 19 18 19 23 27 27 15 8 13 13 10 13 14 15 17 19 25 28 27 29 34 43 54 58 52 56 73 69 47 41 43 45 52 56 60 72 81 83 78 67 56 49 57 72 69 52 39
3 3 3 3 3 3 3 3 3 4 4 4 4 6 7 9 9 9 10 9 9 9 9 8 8 8 8 7 7 8 8 8 8 9 10 10 12 14 16 17 20 19 17 19 21 25 30 19 8 13 14 10 13 13 13 19 24 28 32 33 35 39 42 52 66 67 69 77 63 42 42 46 49 59 60 62 69 71 71 68 59 46 34 43 70 71 49 37
3 3 4 4 4 4 4 4 4 4 4 4 5 7 8 9 9 9 9 9 9 8 8 8 8 8 7 7 7 7 7 8 8 9 10 11 13 15 18 18 20 20 17 17 18 20 28 25 12 10 14 11 12 14 13 17 25 29 33 38 44 49 50 53 63 70 76 81 67 51 50 49 51 58 60 65 71 67 63 54 43 37 34 47 66 58 37 28
4 4 4 4 4 5 5 5 4 5 4 5 6 8 8 9 9 9 9 9 8 8 8 8 8 7 7 7 7 6 7 8 8 9 10 12 15 17 18 18 19 20 16 15 17 17 25 31 21 9 11 14 13 14 16 17 22 26 33 43 47 54 63 63 62 64 71 82 83 76 65 58 60 64 67 78 77 63 54 53 55 61 59 56 54 41 29 26
4 4 5 5 5 6 6 6 6 5 5 6 8 8 9 9 9 9 8 8 8 8 8 7 7 7 7 7 7 6 6 7 7 9 11 13 16 18 19 20 19 18 15 13 16 17 20 30 27 10 8 15 16 17 21 25 28 32 41 50 52 56 64 66 62 60 70 86 95 94 83 70 67 69 74 82 73 59 63 76 84 81 68 54 44 38 36 41
5 5 5 6 6 6 6 6 6 6 6 7 8 9 9 9 9 8 8 8 8 7 7 7 6 6 6 6 6 5 6 7 9 11 14 16 18 19 19 20 19 16 15 13 15 18 20 27 27 14 10 15 17 18 23 27 35 45 52 57 63 70 76 81 81 76 83 95 96 99 98 79 66 69 78 79 69 64 76 85 80 68 54 44 41 38 39 53
6 6 6 6 6 6 6 7 7 7 8 8 9 9 9 9 8 8 8 8 7 7 7 6 6 6 6 6 6 5 6 9 11 14 17 19 20 20 20 20 19 16 14 15 17 19 20 24 23 15 12 15 17 22 30 34 40 48 57 64 74 83 88 95 98 92 92 95 89 95 99 75 59 70 82 77 69 75 88 87 74 61 48 38 39 42 38 50
7 7 7 7 7 7 7 8 8 8 8 9 9 9 8 8 8 8 8 7 7 7 6 6 6 6 6 6 6 7 8 12 14 16 19 20 20 20 19 19 18 15 14 17 19 20 21 23 23 16 9 7 9 19 28 36 42 48 54 61 70 84 93 95 96 96 96 92 88 98 96 70 61 77 82 72 71 87 99 89 71 57 42 32 39 49 45 49
8 8 8 7 7 8 8 8 8 8 8 8 8 8 8 8 7 7 7 7 7 7 6 6 6 5 6 6 6 9 12 16 17 18 19 19 19 18 17 17 17 14 15 18 19 21 21 24 31 34 31 24 18 20 24 31 43 51 55 60 68 81 93 94 94 98 95 85 86 100 97 77 72 79 74 68 78 96 99 83 65 50 36 33 44 54 52 53
8 8 8 8 8 8 8 8 8 8 8 8 8 8 7 7 7 7 7 7 6 6 6 5 5 5 5 6 9 13 17 19 19 19 19 17 16 16 15 15 16 14 17 20 19 20 20 24 35 46 52 52 48 44 42 43 50 57 63 72 79 86 94 96 95 97 95 87 87 98 99 87 80 77 73 76 90 100 91 73 57 42 33 38 49 55 54 55
8 8 9 9 9 8 8 8 9 8 8 8 7 7 7 7 7 7 6 6 6 6 6 5 5 5 6 9 14 17 18 19 19 18 16 15 15 15 13 14 15 15 17 18 17 17 17 22 36 45 46 50 52 48 47 54 64 70 75 83 90 94 98 100 96 94 97 98 95 93 94 95 91 83 81 88 98 99 83 62 47 38 37 44 52 56 55 59
8 8 8 9 8 8 8 8 8 8 8 8 8 7 7 6 6 6 6 6 5 5 6 6 6 6 9 14 18 19 18 17 17 15 14 13 12 11 12 12 14 15 15 14 15 15 14 20 33 38 35 40 44 44 53 68 75 74 79 88 95 100 101 100 99 98 98 102 97 86 90 103 98 83 81 93 101 90 67 49 43 43 46 51 56 57 56 66
8 8 8 9 8 8 8 8 7 7 7 8 8 7 6 6 6 6 6 6 6 6 6 6 7 9 14 19 20 19 17 15 14 13 12 11 10 10 10 11 14 16 15 14 13 13 16 22 27 27 27 34 42 50 65 75 69 67 78 88 92 98 101 100 101 100 98 102 101 95 99 103 87 74 85 99 92 69 48 42 44 45 49 55 56 54 59 80
8 8 9 9 8 9 8 8 8 7 7 8 7 7 6 5 6 6 6 7 6 6 6 7 9 13 17 20 19 18 17 15 13 12 10 11 10 9 9 11 16 17 16 15 14 15 19 20 22 25 25 31 45 58 68 68 60 63 78 85 86 92 99 102 102 99 99 102 102 99 96 83 68 77 96 92 67 45 37 39 40 40 45 49 49 55 74 94
8 8 8 9 9 9 9 9 8 7 8 8 7 7 6 5 6 7 7 8 7 6 8 9 13 17 19 19 18 16 15 14 13 11 11 10 10 10 10 12 16 17 17 17 17 19 21 19 21 28 26 26 40 54 58 55 52 60 74 80 84 92 99 101 102 101 101 101 96 88 78 65 68 88 90 67 44 35 35 38 37 37 39 43 52 71 92 102
9 8 8 9 9 10 9 9 8 8 8 8 7 6 6 5 7 8 8 9 8 8 11 15 18 20 19 17 16 14 13 12 11 10 10 10 10 10 11 14 16 16 17 19 21 21 22 22 24 31 33 29 32 43 49 43 42 55 72 81 89 98 101 100 100 98 96 95 87 76 71 74 84 88 72 51 43 42 44 47 46 41 36 45 70 92 99 101
10 10 9 9 10 10 10 9 8 8 9 8 7 6 6 7 10 10 10 10 9 11 16 19 20 20 18 16 15 13 12 11 10 9 9 10 10 10 12 16 17 17 17 21 24 22 26 34 39 45 52 44 35 41 47 43 44 55 70 85 97 101 98 93 93 89 81 79 77 72 76 85 84 76 69 67 63 59 62 65 64 63 59 64 88 103 101 100
Wind_Speed
12 12 12 12 12 11 9 8 8 7 6 6 5 4 3 3 3 3 3 5 6 3 4 5 7 10 12 12 10 8 6 5 6 6 6 5 6 7 7 8 9 9 9 9 9 10 10 10 9 9 9 10 11 11 12 13 14 15 17 19 21 23 23 22 23 24 28 28 26 25 26 29 27 26 27 28 27 27 27 25 25 26 26 27 25 26 27 27
11 12 12 12 11 10 9 8 8 7 6 5 5 5 5 5 5 4 4 5 5 3 3 3 5 7 8 8 7 6 5 5 5 5 5 5 6 6 7 7 8 8 9 9 9 9 10 10 9 9 10 11 12 13 13 14 15 16 17 20 21 21 21 21 22 24 26 28 26 25 25 27 27 27 28 28 27 27 28 25 24 26 24 24 24 26 28 27
11 11 11 11 10 9 8 8 8 7 6 6 6 7 7 7 6 5 4 4 3 2 3 3 3 4 4 4 4 4 4 5 4 4 5 5 6 6 6 7 7 8 8 8 8 9 9 10 10 10 11 12 13 14 14 15 15 16 17 20 20 20 20 20 22 23 24 26 26 25 25 26 25 26 27 28 29 27 25 23 23 24 22 20 21 23 25 25
10 11 11 10 10 9 8 8 7 7 6 6 7 7 7 6 5 4 3 3 3 2 3 3 3 3 4 4 5 5 4 4 2 3 4 5 5 5 6 6 7 8 8 9 9 9 10 10 11 11 12 12 13 14 14 15 15 16 17 18 19 20 20 19 20 22 22 24 25 24 25 25 24 26 27 28 30 25 19 20 23 24 22 21 21 21 23 23
10 10 10 10 10 9 8 7 7 6 6 7 7 6 5 4 4 3 2 2 2 2 3 3 3 4 4 5 6 5 5 4 4 4 5 4 4 5 6 6 7 8 9 10 10 10 11 10 11 11 11 11 12 12 13 14 15 16 16 17 18 20 19 18 19 21 21 22 23 23 25 25 25 26 26 27 27 20 17 21 25 26 25 24 24 23 23 24
11 11 11 10 10 9 8 7 6 6 6 6 6 5 4 4 4 3 2 2 2 2 3 3 4 5 5 5 6 5 5 5 5 5 4 4 5 5 6 7 8 9 9 9 10 10 10 10 10 10 10 11 11 12 13 13 15 16 16 16 16 18 18 18 18 19 20 21 23 25 25 25 25 25 25 23 21 18 21 25 28 29 28 28 28 27 28 29
11 11 11 11 10 8 7 7 6 6 6 6 5 4 4 4 3 3 2 2 2 2 3 4 4 5 5 5 5 4 3 3 3 4 5 5 5 6 7 7 8 9 8 9 9 10 10 10 10 10 10 10 11 11 11 13 14 15 14 13 14 15 16 17 17 18 20 22 23 25 25 24 25 26 24 20 19 22 26 27 29 30 29 29 28 26 27 28
11 11 11 10 9 8 8 7 6 6 6 5 5 5 5 4 3 2 2 1 1 2 2 3 3 4 4 4 4 3 3 3 3 4 4 5 6 6 7 7 8 8 7 8 9 9 10 10 10 9 9 10 10 10 10 11 12 12 12 12 13 14 15 16 18 19 21 23 24 25 25 24 25 26 23 19 21 24 24 23 24 24 23 21 22 22 22 22
10 10 10 10 9 8 8 7 7 6 6 5 5 4 3 3 2 1 1 2 1 1 2 2 3 3 4 4 3 3 4 5 4 5 5 6 7 7 7 7 7 8 8 8 9 10 10 10 10 9 10 10 10 10 10 11 11 10 11 14 15 14 16 17 18 20 21 22 22 23 23 22 22 21 18 18 21 20 18 18 20 21 20 19 22 23 23 22
10 9 9 9 8 8 7 7 7 6 6 5 4 3 2 2 3 4 4 3 1 1 2 2 2 4 4 4 4 3 5 6 5 6 6 6 6 6 7 7 8 9 9 9 10 11 11 11 10 10 11 10 11 11 10 12 13 11 13 17 16 15 17 18 19 20 20 21 21 21 20 17 15 14 15 17 18 17 15 17 20 20 18 19 22 23 23 23
9 8 8 7 7 7 7 7 6 6 5 5 4 4 5 5 6 5 4 2 2 3 3 3 4 4 5 5 5 5 6 7 7 7 7 7 7 8 9 9 10 10 10 11 12 13 12 12 12 13 12 12 13 11 12 15 15 14 16 17 14 14 16 17 18 18 17 18 18 19 16 13 12 11 14 15 14 16 17 18 18 17 17 18 19 20 22 22
9 8 7 7 7 6 6 6 6 5 5 6 6 7 8 7 6 5 4 4 4 5 4 5 5 6 6 6 6 7 7 7 8 9 9 10 11 12 12 10 10 10 10 12 13 15 14 13 13 15 15 15 15 13 13 15 14 15 16 14 11 10 12 14 15 14 15 17 19 18 14 12 13 11 13 14 15 17 18 18 18 15 16 16 16 18 22 23
9 8 7 7 6 6 6 6 6 6 6 8 9 9 8 7 6 6 6 6 6 6 6 6 7 8 8 7 9 10 9 9 10 11 12 13 13 13 12 10 11 10 11 13 15 17 17 16 15 17 17 16 14 12 13 14 13 14 14 13 12 9 11 14 14 13 16 19 20 20 17 16 13 10 15 18 18 20 19 18 18 16 16 16 15 17 20 21
10 9 8 7 7 7 7 7 7 7 8 9 10 9 8 8 7 7 7 7 8 8 8 8 8 9 9 10 12 13 14 14 14 14 13 13 13 13 13 13 13 13 14 15 16 17 17 17 17 16 15 13 13 13 13 12 12 14 12 12 16 17 16 17 16 16 19 21 21 21 20 20 14 7 13 19 20 23 21 18 18 17 17 16 16 16 15 16
11 10 9 8 8 8 9 9 9 9 9 9 9 9 9 8 9 9 9 9 9 9 9 9 9 10 12 15 16 16 16 14 13 13 13 14 15 15 16 16 16 15 14 14 16 16 14 17 17 14 14 12 12 12 10 9 11 14 14 15 20 21 20 21 19 20 23 24 23 22 22 20 15 8 12 17 20 22 19 15 15 16 14 15 16 14 12 10
12 10 10 9 9 10 10 10 10 9 9 10 10 10 10 10 10 10 10 10 10 10 10 10 10 11 14 17 17 14 12 12 12 13 14 15 16 16 17 17 17 15 13 13 15 14 12 15 15 13 14 12 12 13 9 11 15 16 19 21 22 24 25 25 21 22 27 28 26 24 22 21 17 13 15 17 19 18 14 11 12 14 13 14 15 13 12 8
12 11 11 11 11 11 10 10 10 10 10 11 11 11 11 11 11 11 11 11 12 12 12 13 12 12 15 15 14 13 13 14 14 13 14 14 15 15 15 16 16 15 12 12 14 13 11 14 15 13 15 15 16 19 16 16 20 20 21 23 24 24 28 29 24 23 29 30 28 24 21 21 19 15 15 16 17 15 11 10 10 12 12 11 12 11 10 8
13 13 13 13 12 11 11 10 10 11 11 12 12 12 11 12 12 11 11 12 13 13 15 15 12 12 15 15 14 16 17 17 16 15 13 13 14 14 13 13 14 14 10 10 12 11 9 13 14 12 16 19 21 23 22 19 20 21 22 25 26 26 28 31 26 27 32 30 27 24 21 21 19 14 13 14 14 12 10 10 10 11 11 11 11 10 9 7
14 14 14 13 13 12 12 11 11 11 12 12 12 11 11 12 12 12 13 12 12 15 17 18 16 17 18 18 18 18 17 16 16 15 14 14 13 12 11 9 11 12 9 9 12 9 9 13 14 16 22 24 24 25 23 20 20 20 20 24 27 27 30 30 27 31 36 32 28 25 22 21 18 12 9 14 13 10 10 10 11 12 11 11 12 12 10 9
15 15 14 13 13 13 12 12 12 12 12 12 11 12 13 14 14 15 14 13 15 19 19 18 18 19 19 19 18 17 16 15 15 15 13 11 10 10 9 7 9 10 7 9 10 8 9 14 20 24 25 24 24 23 22 21 21 21 20 23 26 29 33 30 28 33 34 34 32 25 23 22 14 5 8 16 16 13 14 13 12 12 12 13 13 13 13 13
15 14 14 14 14 13 13 14 15 15 15 15 15 16 17 16 16 17 15 16 22 23 21 18 17 14 15 17 16 16 15 13 13 14 10 8 9 9 8 8 9 8 6 8 11 10 9 17 24 25 24 23 23 22 22 22 22 22 20 24 28 30 35 31 29 34 32 35 32 22 23 18 5 3 9 18 20 18 16 15 13 13 14 14 15 16 16 16
15 14 15 16 16 16 17 18 20 20 20 20 19 18 18 17 18 19 19 23 24 23 22 20 16 12 12 15 16 16 13 7 7 10 9 10 11 12 11 11 9 7 7 9 13 13 12 18 23 24 25 24 23 23 23 22 23 23 21 26 30 31 36 35 34 35 32 34 27 22 24 11 6 6 10 18 21 17 13 13 13 15 17 18 18 20 21 21
15 16 18 18 19 19 20 20 22 23 22 21 19 19 20 20 21 20 22 24 23 22 21 19 17 13 10 12 15 16 15 10 10 11 12 12 14 15 15 13 12 10 9 10 14 16 16 17 20 24 26 25 24 23 22 23 24 23 22 27 32 32 35 37 40 38 33 29 22 25 26 2 10 5 11 16 18 14 13 13 14 17 18 18 17 19 22 24
16 18 19 19 20 21 21 22 22 22 22 20 19 21 21 21 21 21 22 23 22 21 21 19 19 15 11 10 12 16 19 16 15 15 16 15 16 17 17 17 15 13 11 11 13 17 17 16 17 22 26 26 26 24 24 27 27 24 23 29 32 33 34 35 38 38 34 25 18 27 23 7 15 9 15 17 14 14 16 16 18 19 18 16 15 17 19 22
17 18 19 19 20 21 22 22 22 22 21 20 20 20 19 18 17 18 20 21 21 20 19 18 18 18 15 12 10 14 18 20 19 19 19 18 18 18 19 20 18 16 14 12 10 13 16 17 17 20 26 28 26 26 28 30 31 27 26 29 30 32 34 33 32 34 32 23 21 26 15 7 14 17 22 22 17 17 21 24 25 23 21 19 18 18 19 19
18 18 19 19 19 20 20 21 21 21 20 19 18 15 11 10 10 10 12 16 20 20 19 18 16 17 18 16 14 12 15 21 22 21 20 19 19 19 18 20 21 19 18 14 10 10 14 19 20 20 25 27 26 27 27 30 32 28 28 30 29 32 34 31 31 29 24 22 26 22 8 8 17 23 26 28 25 23 23 25 26 25 24 22 21 22 22 22
18 18 18 18 18 19 19 20 20 19 17 15 11 6 8 10 8 5 3 7 15 19 19 17 16 17 19 19 19 15 15 18 19 20 21 20 20 19 18 20 22 22 21 18 15 12 13 18 20 20 25 27 28 28 28 30 31 28 30 29 30 34 33 31 30 23 20 26 28 18 9 10 18 26 28 31 32 30 29 26 24 24 25 23 23 24 24 25
17 17 18 17 17 17 17 17 16 14 12 7 2 6 7 7 7 5 3 4 9 15 16 16 16 18 19 19 19 19 19 17 19 22 22 21 20 18 18 20 22 23 23 20 17 14 14 18 19 20 25 28 27 27 27 28 28 29 29 27 32 34 31 33 25 16 21 26 20 15 8 8 16 29 31 32 36 33 30 27 25 25 25 25 26 26 27 27
16 16 15 14 14 13 13 12 10 8 5 0 4 4 3 5 6 6 7 6 7 12 14 14 14 15 17 17 17 18 18 18 20 22 22 22 21 19 19 21 22 23 22 21 18 14 15 19 19 19 25 27 26 24 25 26 26 30 29 29 33 31 32 33 17 14 22 16 11 14 10 5 16 33 37 35 33 28 25 24 24 26 27 29 30 31 32 33
12 10 9 9 9 9 7 6 5 3 1 1 1 0 1 1 2 4 5 5 7 11 13 14 14 14 13 14 16 17 18 19 20 20 20 21 22 20 19 20 21 21 20 20 18 15 16 19 20 19 23 28 27 24 24 25 27 27 27 33 36 32 34 25 9 16 18 8 13 21 17 11 11 22 30 26 20 19 22 23 24 27 29 32 35 36 38 40
7 6 6 5 5 4 3 3 3 3 3 3 3 3 3 2 2 4 4 4 6 9 12 14 15 16 14 15 18 18 19 20 20 19 19 21 22 23 24 26 27 25 23 23 21 17 15 18 21 20 23 30 30 29 27 26 28 25 25 33 35 33 34 18 8 15 7 7 23 28 24 18 10 13 18 15 12 13 18 23 26 30 33 37 40 41 43 45
6 6 6 5 5 5 5 6 6 7 7 6 7 7 8 8 8 8 5 2 3 6 11 15 16 17 17 18 20 19 20 21 22 22 22 25 29 31 33 35 35 30 27 26 25 22 16 16 22 21 25 32 33 35 35 32 31 24 26 33 24 17 20 11 8 9 2 13 31 29 22 17 15 18 20 17 17 15 16 22 27 33 38 42 45 46 48 49
11 11 11 11 10 9 10 9 8 10 9 9 10 9 11 12 9 7 7 4 4 6 10 13 16 18 19 20 21 20 21 22 23 23 23 24 29 32 32 33 33 30 27 24 24 27 22 19 23 23 26 32 32 34 37 38 33 22 26 32 15 5 8 6 6 5 6 22 37 31 18 13 15 19 21 21 19 16 17 22 28 38 44 48 51 51 52 53
15 14 14 15 14 14 14 13 13 13 12 12 12 11 13 15 9 7 9 8 7 9 11 12 15 18 20 21 22 22 22 23 23 23 23 22 25 31 31 31 33 31 30 25 21 24 20 17 23 23 25 32 30 28 30 34 28 21 26 26 14 10 7 5 6 5 8 23 38 33 17 13 17 16 16 19 19 17 19 26 36 46 52 55 56 56 56 58
16 15 16 17 16 17 16 15 15 13 12 13 11 11 14 13 8 9 10 7 7 8 9 12 14 16 19 20 21 22 22 23 23 23 24 23 24 30 31 32 34 33 33 28 21 19 16 19 23 19 23 32 28 24 28 30 23 20 25 23 20 23 16 12 14 19 18 16 22 24 19 21 28 27 25 25 24 22 25 36 47 55 60 60 58 59 61 64
18 18 19 18 18 17 14 14 13 11 11 8 5 13 18 14 11 12 12 11 11 10 9 11 14 16 19 19 20 22 22 23 24 23 25 24 23 27 31 32 33 32 31 28 23 18 17 25 25 17 24 32 27 24 26 25 22 22 24 25 28 28 20 16 17 21 18 10 10 17 22 27 29 27 27 24 24 27 32 43 53 59 64 64 61 62 64 66
21 20 19 19 18 16 13 12 10 12 12 4 5 17 21 17 16 16 15 15 15 15 13 13 15 17 20 21 21 21 21 23 24 23 25 25 22 24 29 31 30 29 29 27 25 21 21 29 29 22 27 33 29 28 27 22 19 20 24 28 28 22 18 17 10 8 9 6 9 16 24 30 24 18 24 26 29 36 42 49 56 62 67 66 64 66 67 68
21 20 19 18 17 16 14 11 9 10 7 3 11 21 20 18 18 16 16 16 16 16 17 16 16 17 19 21 22 23 22 23 25 24 24 25 23 22 26 30 30 27 28 26 26 26 25 28 30 29 33 35 31 31 34 29 20 21 25 25 20 15 17 20 13 7 8 6 8 14 23 30 27 24 31 34 35 43 48 54 59 62 64 62 63 67 69 68
19 18 18 16 15 15 14 11 11 10 7 8 17 21 19 19 18 16 16 16 15 16 17 16 16 17 18 20 22 24 23 23 26 26 23 25 24 21 23 29 28 26 27 27 26 29 26 21 25 34 39 35 33 34 36 33 29 30 29 23 20 15 13 20 21 15 11 7 8 12 15 20 25 29 33 31 36 48 54 56 56 55 56 58 62 66 67 66
15 15 16 15 13 14 16 14 11 8 8 15 22 20 19 19 17 16 16 15 15 16 16 16 17 17 18 20 22 24 23 22 24 25 24 26 25 21 23 27 26 24 25 26 26 29 28 20 24 41 45 36 33 33 28 25 29 33 29 25 27 25 21 26 26 20 14 8 6 7 9 17 29 33 32 31 40 52 53 50 50 51 55 60 64 66 66 65
13 13 16 16 13 17 17 12 9 10 13 20 22 20 19 18 16 16 15 15 15 15 16 17 17 18 19 20 22 24 24 21 23 24 24 26 25 22 24 26 26 24 24 26 26 27 29 23 26 41 46 36 33 31 23 20 25 29 26 25 27 27 24 18 13 16 17 11 11 10 7 22 37 32 28 33 45 52 49 47 49 52 58 64 66 65 66 65
13 14 16 15 15 17 13 8 11 16 19 21 20 18 17 16 15 14 13 13 14 14 16 17 17 18 19 21 22 24 24 22 21 23 24 24 24 22 24 25 24 24 25 25 26 28 28 23 28 40 43 37 34 29 19 19 28 32 28 28 28 24 21 14 8 16 22 19 22 17 10 26 39 28 26 40 50 51 47 45 49 55 64 68 66 64 65 64
13 15 16 14 16 15 10 10 16 18 19 19 18 17 16 14 14 13 13 13 14 14 15 16 18 19 20 22 22 23 25 22 20 22 23 22 22 21 22 24 22 23 26 25 27 29 24 20 28 40 45 47 45 35 23 22 32 38 35 36 35 28 26 23 17 19 21 20 20 11 9 28 38 29 36 51 55 49 44 45 52 63 71 70 65 63 64 63
13 17 17 15 16 15 13 15 17 17 18 19 17 16 15 14 13 13 13 13 14 15 15 16 19 20 20 22 22 23 24 23 21 22 22 21 21 21 22 23 21 22 26 26 28 28 22 18 22 25 29 37 41 38 35 35 37 37 36 37 37 32 30 27 20 17 15 18 22 13 12 31 42 42 52 61 55 46 43 48 59 69 72 68 64 63 63 62
11 16 17 17 16 14 15 18 16 15 17 16 15 15 14 13 13 13 13 13 14 15 16 17 19 20 20 21 21 22 23 23 22 21 21 21 20 20 22 21 19 22 25 26 28 29 25 22 18 12 10 13 18 23 30 36 35 32 33 34 34 33 29 24 21 17 14 24 33 24 22 40 53 55 61 61 51 45 47 56 67 72 70 65 64 63 63 61
11 14 17 19 16 14 16 19 16 15 15 14 14 14 12 12 12 13 13 14 14 16 16 17 19 19 19 20 20 20 21 21 20 20 20 20 19 21 22 19 18 22 25 26 29 30 30 27 19 14 15 17 22 25 25 26 28 30 33 33 30 27 24 22 21 19 21 28 34 31 33 48 58 61 62 57 48 48 57 67 73 71 66 64 64 63 63 59
12 14 15 15 14 15 17 18 15 14 14 13 13 13 12 12 12 13 14 14 15 16 17 17 19 19 19 21 21 21 20 19 18 19 20 19 18 19 21 18 17 22 26 28 30 31 33 31 25 25 29 29 26 24 22 22 27 33 33 30 27 24 23 24 23 25 28 24 27 38 46 49 57 64 60 51 49 56 66 73 72 67 65 65 64 64 62 56
13 14 14 13 13 14 15 15 14 13 12 12 12 13 12 13 13 13 14 15 15 16 17 17 18 19 20 22 23 23 23 22 20 20 21 21 20 20 21 16 14 22 27 27 31 33 32 31 32 35 38 33 24 20 23 28 33 35 31 28 27 24 24 28 28 30 35 28 31 46 50 49 59 61 51 47 54 64 72 72 68 65 66 66 65 65 61 51
14 14 14 13 13 14 13 13 13 12 11 11 12 12 12 13 14 14 14 15 15 16 17 18 18 19 20 21 22 23 25 25 25 25 25 23 21 23 23 16 13 20 25 25 31 33 32 34 36 39 41 35 24 22 30 35 36 33 27 23 24 26 27 31 33 37 42 39 41 48 52 55 58 50 45 52 63 70 72 69 67 67 67 67 66 62 55 49
14 14 14 13 12 13 12 12 12 11 10 11 11 11 11 14 15 15 15 15 15 16 16 17 18 18 19 20 21 21 22 23 24 26 25 23 22 24 24 19 17 20 22 24 28 30 33 37 37 40 43 38 30 32 38 41 38 28 19 19 26 32 33 36 39 42 45 47 50 53 56 59 52 44 50 63 69 71 70 68 68 67 67 67 64 58 52 53
14 15 14 12 11 13 11 10 10 9 10 11 11 10 11 14 16 16 15 15 15 15 16 17 17 17 18 18 19 19 20 20 21 21 21 20 21 23 22 20 20 22 24 25 27 30 35 38 40 42 42 40 41 42 44 45 36 20 16 26 32 32 35 40 43 45 49 53 56 56 56 54 49 50 61 70 71 70 69 68 68 67 67 65 59 54 55 61
15 16 15 12 11 12 11 9 9 9 9 11 11 11 12 15 16 15 15 15 14 15 17 17 17 17 17 18 19 19 19 20 19 18 17 16 19 21 18 16 18 22 25 25 27 33 36 37 40 38 35 38 43 45 48 42 23 15 27 35 31 29 37 46 50 52 54 54 56 57 54 49 51 62 72 74 72 69 69 68 67 66 64 60 56 56 62 67
Wind_Direction
175 173 172 173 171 171 174 180 184 188 193 198 210 219 235 263 291 267 281 310 312 301 254 254 261 259 269 285 297 303 308 313 307 302 309 322 329 334 340 343 341 339 335 329 321 310 308 308 305 305 299 298 297 297 294 290 287 282 277 275 279 286 293 300 301 301 301 301 302 304 305 303 304 306 304 303 304 305 304 306 306 300 296 293 289 285 284 285
168 169 170 173 172 173 178 184 187 190 193 204 226 235 239 246 263 254 229 247 275 286 252 250 250 246 255 273 293 306 316 316 302 300 312 320 321 328 335 338 336 335 335 331 323 310 304 305 306 303 297 296 294 294 292 291 290 286 281 281 288 294 297 300 300 300 300 301 304 306 305 302 307 309 307 306 305 306 309 309 301 295 295 291 288 287 286 288
162 166 171 175 176 177 183 188 191 194 199 214 229 236 238 236 243 246 239 249 268 262 252 264 270 279 285 292 313 323 325 316 306 313 320 317 314 322 329 328 327 328 328 324 318 312 305 303 304 302 298 297 295 296 295 295 293 290 287 289 295 298 298 301 301 300 302 303 305 307 304 306 311 310 310 309 307 311 314 309 298 294 294 289 286 286 289 291
164 168 172 176 177 179 185 190 193 197 206 217 224 227 229 231 239 242 244 250 255 255 261 279 295 310 313 328 343 341 335 318 315 340 326 312 307 312 318 318 319 320 320 318 314 309 305 302 300 298 296 296 297 299 299 298 296 294 294 296 299 298 301 306 303 301 304 304 307 310 309 314 318 313 313 310 310 316 312 301 294 291 292 288 282 280 285 287
164 168 170 171 173 177 182 187 192 198 208 216 219 221 223 228 235 240 244 239 255 268 271 297 329 338 338 351 353 341 326 293 285 324 320 302 297 302 309 310 312 315 314 315 314 310 306 301 298 297 297 300 305 307 306 305 301 300 302 302 301 302 305 307 303 304 305 307 313 315 314 318 318 313 310 308 314 318 298 287 287 289 290 287 283 281 281 282
160 163 164 165 168 172 174 179 185 191 198 205 207 208 209 210 217 226 233 250 271 278 300 341 354 351 350 352 347 337 327 301 283 292 295 292 298 303 306 307 311 312 311 315 316 312 309 307 308 308 307 310 313 313 311 308 305 305 307 306 304 305 306 306 306 307 309 315 320 317 316 318 315 309 307 310 313 302 285 286 291 293 293 291 291 290 288 288
155 157 157 160 162 162 164 170 176 179 182 187 187 184 184 188 200 212 230 258 290 318 337 354 355 351 346 342 338 334 334 323 286 275 286 298 305 307 307 312 312 309 312 320 321 320 320 319 318 317 316 317 316 315 312 308 308 308 311 312 309 308 308 310 312 312 314 318 319 315 313 315 312 307 310 311 301 291 292 298 300 302 305 306 308 307 304 303
149 153 154 155 154 154 158 162 164 164 164 167 170 175 179 185 195 213 242 293 352 349 358 2 352 341 333 332 333 333 336 338 318 303 309 317 317 317 317 318 315 315 325 332 334 336 335 331 328 326 324 324 322 320 317 316 316 319 327 327 322 319 317 316 316 317 317 317 316 312 311 313 310 308 312 308 298 303 314 319 319 323 332 337 340 341 335 329
148 151 151 150 148 151 151 149 149 149 155 162 168 173 174 182 183 161 77 71 54 28 22 359 342 329 329 332 323 332 349 348 344 339 337 333 330 329 324 327 332 336 343 347 348 350 348 343 340 340 339 336 335 332 330 331 331 336 344 340 334 328 322 319 318 318 316 315 315 316 318 317 309 308 313 310 313 327 340 344 346 350 357 358 354 352 347 343
152 151 149 148 146 144 137 136 139 144 151 152 150 147 136 125 99 89 89 91 84 38 9 350 351 341 343 345 339 356 1 357 2 357 349 344 339 336 337 348 356 356 357 359 360 360 357 353 352 354 352 347 346 343 342 343 342 343 344 341 337 330 324 321 320 318 315 314 317 328 336 327 316 315 319 324 334 344 354 358 359 359 0 357 353 353 351 351
153 150 147 144 137 131 127 129 133 133 130 121 115 105 96 95 95 98 96 80 37 18 8 13 17 9 14 7 6 24 17 9 11 7 4 2 358 2 10 12 8 6 7 9 10 9 4 2 3 1 358 355 353 348 344 347 347 342 339 341 337 331 326 320 317 315 315 318 321 337 350 342 334 327 326 340 351 352 356 2 3 358 353 351 353 359 357 356
150 148 142 137 132 129 129 129 124 115 107 102 100 96 98 98 93 85 59 38 31 30 33 41 44 43 37 23 27 38 33 27 27 27 27 20 16 17 18 12 6 8 14 18 17 14 11 8 5 3 2 357 353 349 345 347 348 343 340 342 339 331 327 322 323 324 327 331 332 340 356 0 351 334 333 348 355 356 359 2 4 359 350 350 354 1 1 358
149 147 143 142 139 136 131 125 118 111 105 102 100 98 93 84 71 59 47 47 54 56 57 57 58 54 47 44 47 46 44 42 41 39 34 28 23 20 17 9 7 12 14 14 14 13 14 12 5 4 2 352 349 352 348 345 346 346 346 350 358 4 355 343 339 342 341 339 338 339 349 2 359 333 329 337 345 353 0 5 6 4 360 357 355 357 3 7
148 148 148 148 143 137 129 125 122 115 112 106 100 91 79 69 64 62 63 70 75 73 69 66 66 61 57 55 51 47 44 41 38 34 31 31 28 25 21 13 9 8 6 7 9 11 14 13 7 5 2 356 356 355 348 348 352 352 356 2 3 6 5 356 345 347 348 343 341 339 340 355 4 342 325 325 331 345 359 13 11 10 9 1 355 353 1 17
148 149 148 145 139 134 128 126 122 116 112 103 94 85 78 76 71 73 77 79 82 81 77 73 71 65 59 54 47 41 39 36 33 28 25 23 23 22 17 12 7 359 358 4 7 9 13 12 8 5 3 2 360 352 350 5 6 2 6 5 1 360 1 359 350 348 352 348 345 342 339 354 7 354 336 329 330 340 355 14 9 5 6 357 355 352 355 14
146 144 140 135 130 128 124 122 118 113 105 96 93 88 85 84 81 83 84 86 90 86 81 74 68 61 56 51 44 40 38 32 28 27 25 19 15 12 9 9 5 356 354 359 2 4 10 9 4 3 6 10 12 10 19 20 12 11 9 2 359 359 357 358 354 350 352 349 348 344 338 353 4 346 341 341 341 346 354 5 352 343 346 348 351 353 352 350
136 133 130 127 125 122 119 117 112 104 99 97 97 94 91 89 87 90 92 95 94 85 77 67 60 58 56 52 44 39 33 26 23 22 22 18 10 3 1 3 3 357 351 351 357 359 3 4 2 6 13 20 23 21 25 16 6 6 5 1 358 357 356 355 353 350 349 347 347 341 336 355 7 358 352 347 343 343 340 333 322 320 326 332 333 337 340 335
131 128 126 123 119 116 113 109 104 102 102 105 105 103 101 98 96 95 93 91 86 80 70 59 56 58 53 45 38 34 28 20 15 13 15 14 6 359 354 355 358 357 351 350 353 353 359 360 1 13 21 26 25 22 22 11 358 356 357 357 354 353 356 354 350 348 345 343 346 339 335 357 12 19 8 343 334 332 319 304 293 296 302 305 311 313 314 313
124 121 119 118 115 114 112 107 106 106 104 105 106 107 105 103 101 93 89 90 87 78 68 60 58 57 51 39 31 26 20 12 7 6 3 357 356 357 357 353 355 359 0 356 351 352 359 358 6 19 22 23 21 19 17 6 357 352 350 354 351 347 352 354 348 347 343 339 345 340 335 356 15 31 1 329 325 312 291 279 270 275 286 290 296 300 298 295
120 119 120 120 119 118 114 111 109 105 102 101 102 104 102 103 100 93 94 94 81 70 63 58 54 54 52 41 31 24 16 7 7 6 357 353 0 7 10 5 359 0 1 358 360 8 4 7 21 24 21 20 18 16 11 5 360 353 346 350 353 345 344 351 347 347 344 336 341 341 334 353 19 37 328 324 318 289 270 269 269 274 284 288 291 291 288 285
119 119 120 120 119 117 113 111 107 105 106 106 106 106 105 104 98 90 89 80 68 61 56 52 49 52 50 41 33 30 19 359 360 10 12 23 29 26 24 13 2 2 8 16 22 24 14 19 28 25 21 19 16 13 8 5 358 354 349 348 353 347 341 346 347 347 344 335 339 339 335 354 50 212 311 325 313 290 275 273 278 287 289 287 284 280 278 276
114 116 118 118 118 116 113 111 110 111 112 111 111 111 107 101 91 83 78 71 65 61 55 48 44 48 52 45 38 36 29 4 5 23 35 44 39 36 32 22 20 24 35 34 29 28 25 27 29 24 21 18 12 9 6 5 359 355 354 350 352 349 342 342 345 345 341 335 338 339 340 1 152 236 312 329 317 299 301 304 298 299 295 290 285 280 277 276
115 117 118 119 119 118 117 118 118 117 115 115 115 110 103 93 84 77 72 68 65 63 58 52 48 50 61 57 48 45 44 49 53 46 46 46 41 39 36 33 36 35 34 30 28 30 28 27 27 23 21 16 8 5 2 2 2 357 354 352 350 349 345 340 339 340 337 337 339 337 338 320 175 269 311 332 328 306 311 324 315 307 307 309 307 298 291 288
117 118 119 121 122 123 124 123 121 119 119 120 116 108 98 86 77 70 67 66 63 61 56 54 55 56 66 66 55 51 47 47 50 46 45 40 36 36 36 36 38 36 30 21 24 29 28 25 24 22 20 14 7 3 360 359 1 359 354 352 348 346 344 338 336 336 335 340 341 336 335 208 193 258 296 317 327 301 291 293 298 305 312 320 318 311 308 306
119 121 123 125 125 126 125 124 123 123 125 124 117 107 95 77 64 61 65 63 59 59 56 52 53 53 57 59 53 50 45 42 42 41 38 34 32 31 32 34 35 37 31 21 20 23 25 21 18 19 16 11 6 2 2 358 356 356 352 349 345 341 340 339 337 334 332 336 337 335 337 212 228 266 287 301 307 300 290 282 287 297 307 313 315 319 324 324
122 125 127 126 126 126 126 127 127 128 129 125 118 104 75 38 33 52 64 57 48 50 51 46 46 44 47 51 47 44 40 38 38 37 34 31 29 28 30 32 32 36 31 23 18 13 17 15 13 16 12 8 6 3 3 358 353 353 348 344 343 338 337 339 337 333 327 324 328 329 309 255 277 283 290 300 306 307 300 290 290 297 308 316 325 329 330 328
124 127 127 126 126 126 128 130 130 132 132 125 115 74 16 5 21 44 62 47 33 33 37 37 39 38 43 47 42 41 42 35 34 36 33 32 29 26 30 32 32 33 28 22 19 14 15 12 11 14 11 9 7 4 1 356 352 349 343 340 339 337 335 337 336 331 325 320 325 326 281 258 284 293 298 302 305 307 305 304 304 308 316 323 331 334 332 332
126 128 129 127 128 128 129 130 132 136 134 122 55 350 353 18 44 53 81 76 19 17 25 30 36 37 40 43 39 42 46 36 33 33 30 30 29 25 29 33 33 32 27 24 23 23 20 13 11 10 10 11 10 5 358 354 350 344 342 338 336 335 333 335 334 327 327 321 321 326 292 254 285 296 300 299 300 305 310 318 324 326 328 329 331 333 332 333
126 129 131 133 134 132 132 136 143 147 145 332 336 349 23 49 58 66 83 80 22 19 27 31 38 41 40 43 40 41 42 38 38 35 27 25 23 22 26 30 31 30 26 25 25 26 22 14 12 8 6 8 8 5 357 353 349 342 342 337 334 334 334 336 336 328 328 312 302 328 315 269 294 299 299 300 304 310 318 326 330 331 332 331 331 332 332 332
128 133 138 144 147 146 146 151 160 156 128 345 354 59 81 59 61 60 71 68 35 33 39 41 45 48 46 44 41 39 38 37 37 32 26 24 19 17 23 26 28 28 27 29 29 24 20 17 14 7 3 2 2 2 358 354 350 344 342 339 335 339 340 339 332 331 332 294 304 329 321 296 291 297 298 303 317 327 327 327 328 329 332 333 334 333 333 333
130 135 141 150 152 155 144 123 117 104 103 107 94 85 90 109 95 72 82 74 43 39 46 48 47 47 44 40 38 35 32 33 29 22 18 19 15 13 18 21 20 20 20 27 31 27 24 21 16 11 5 0 356 357 356 355 354 347 343 344 342 344 345 343 333 339 348 285 311 322 318 299 268 278 290 293 310 324 328 330 332 334 337 338 339 336 335 335
107 102 100 97 94 97 98 101 103 100 107 104 88 88 99 97 76 71 97 99 30 35 44 47 44 42 39 37 36 30 28 29 24 19 16 16 16 17 21 21 18 15 11 12 19 24 26 22 16 13 8 3 356 353 353 354 356 350 345 351 351 347 346 342 331 336 261 287 310 318 316 293 262 271 279 277 284 297 316 328 334 337 338 338 339 338 337 337
91 88 87 87 90 97 101 104 101 95 99 96 91 99 102 94 74 65 83 88 70 53 45 44 41 39 36 33 32 27 27 27 23 20 19 17 18 21 23 21 18 17 9 4 9 13 17 17 12 9 8 5 358 355 352 348 351 352 350 353 357 8 350 325 314 320 286 302 311 318 316 286 275 276 272 271 275 284 304 322 333 336 336 336 336 337 338 338
92 91 91 91 93 97 97 95 92 91 92 91 97 108 97 85 81 83 82 83 87 68 52 48 41 36 33 30 28 24 22 23 20 19 17 15 17 20 20 18 17 15 10 8 8 7 7 3 3 4 4 1 358 358 351 343 346 351 351 353 353 352 338 287 294 297 293 301 306 313 312 295 301 294 278 278 277 285 307 323 331 333 334 334 333 334 335 337
90 90 89 88 88 89 89 86 84 86 92 92 91 95 93 89 91 88 77 72 76 63 53 50 41 35 32 28 24 20 18 17 15 15 16 15 15 17 16 15 13 11 9 8 5 3 353 346 356 4 358 356 358 360 353 348 349 348 349 353 345 334 318 284 287 288 287 290 299 306 301 299 303 299 296 295 292 299 315 324 329 332 333 333 332 334 337 338
87 87 87 84 81 82 84 84 83 79 83 90 85 81 87 95 94 83 74 67 62 54 50 44 34 32 30 25 21 17 14 12 11 12 13 13 15 14 13 13 11 8 7 5 1 358 342 342 357 6 354 355 360 1 359 355 351 345 348 348 336 329 319 299 291 292 295 286 290 301 299 303 304 301 303 301 293 298 309 320 327 332 334 334 334 337 340 339
86 85 83 78 74 71 71 77 84 81 73 65 98 90 89 91 87 80 74 68 60 53 48 40 32 30 26 22 19 14 10 10 10 10 11 12 12 11 10 10 8 6 4 3 2 357 339 339 353 359 352 355 358 357 1 5 360 353 347 341 335 330 325 316 300 299 309 285 288 303 303 306 305 300 304 300 295 300 309 319 325 330 334 335 333 336 338 336
80 79 78 75 72 66 62 60 64 79 88 102 98 93 90 86 81 77 71 64 58 49 43 40 34 28 22 18 16 12 9 9 9 9 10 11 8 7 9 7 4 4 1 1 0 357 346 338 345 351 348 353 359 356 357 2 3 357 346 339 339 332 323 325 322 308 308 291 287 301 304 302 297 298 303 303 307 315 322 327 330 333 337 335 330 330 331 329
75 77 76 72 74 74 70 62 60 79 113 111 96 92 89 85 80 74 68 59 54 47 41 38 31 23 18 14 10 9 8 7 7 8 8 8 5 3 6 3 2 1 358 358 356 354 352 337 333 343 346 352 0 359 357 355 351 350 345 339 339 330 316 321 319 305 299 300 298 301 300 294 294 304 307 309 322 329 332 333 334 336 336 332 329 328 327 326
73 76 76 71 72 78 78 75 78 96 105 91 91 92 88 85 79 70 64 54 49 45 39 32 25 21 15 9 7 6 6 4 4 6 6 5 3 1 1 359 358 359 356 356 353 350 352 338 324 338 347 354 360 359 356 348 345 346 344 341 338 333 327 322 317 310 303 300 303 298 286 288 299 307 306 311 326 332 333 332 331 333 333 332 330 328 328 328
66 67 75 75 68 71 78 84 84 86 87 85 88 89 85 83 77 68 60 50 45 39 32 24 18 16 12 7 6 2 2 2 3 5 4 3 2 358 356 355 354 357 354 353 354 350 349 340 325 334 343 349 353 355 352 344 345 345 340 339 335 331 333 328 312 311 309 296 292 292 281 296 304 309 306 313 327 330 330 329 329 332 333 330 327 326 328 330
60 60 71 77 71 70 76 87 78 75 82 85 85 85 83 79 72 63 52 43 38 29 24 19 13 11 9 6 4 360 359 0 1 3 2 1 359 354 352 353 353 354 352 351 353 350 348 343 333 334 338 343 350 355 354 346 344 340 336 337 336 338 348 345 317 317 318 307 298 292 281 299 308 314 311 318 328 328 326 326 328 330 329 327 324 322 325 329
61 67 73 75 75 74 71 76 79 79 82 83 82 81 78 71 64 55 43 34 27 20 17 13 10 8 6 4 2 358 358 358 358 360 359 358 356 351 350 351 351 351 351 351 350 349 351 348 339 338 340 343 348 352 352 347 343 338 335 335 333 335 341 336 323 316 314 308 307 301 278 299 310 316 315 323 330 327 323 324 325 327 327 326 324 322 324 329
64 75 77 74 75 79 75 73 77 79 81 81 79 75 68 62 54 44 35 27 20 15 10 7 7 5 3 3 360 357 357 356 354 355 356 356 353 349 348 348 350 351 349 348 347 348 352 352 344 341 340 342 346 348 345 342 339 334 328 326 322 321 326 329 328 321 305 302 314 315 279 297 310 317 321 329 332 325 319 320 322 325 326 325 325 324 326 328
69 80 80 77 76 79 79 75 70 71 77 79 73 66 58 51 44 32 25 19 13 10 6 5 5 2 0 0 357 355 355 353 351 351 353 354 351 347 347 347 348 350 348 345 344 345 349 352 353 350 337 329 328 327 328 329 327 325 321 317 315 317 321 328 333 326 307 306 310 302 285 301 314 322 327 331 329 320 318 319 322 324 324 324 325 325 327 329
71 81 82 81 77 72 74 75 69 65 69 69 64 59 48 38 33 23 17 13 7 6 4 2 1 358 357 356 355 354 353 351 351 349 350 353 351 346 346 347 347 350 348 344 345 346 346 349 354 348 330 316 307 310 321 325 321 320 319 313 311 314 317 328 335 327 320 312 303 300 304 311 318 325 328 328 324 320 320 321 323 324 323 324 325 326 327 329
71 79 81 81 78 72 71 73 69 60 57 55 53 51 42 30 22 14 11 8 4 2 0 358 358 356 355 354 353 352 352 354 354 349 349 352 353 349 346 344 346 349 348 346 346 346 345 346 347 338 330 326 322 325 335 334 325 324 319 309 308 311 316 330 338 335 333 315 297 314 322 317 318 325 327 324 323 322 321 322 324 323 323 325 326 326 328 330
71 74 75 74 76 75 71 70 66 56 47 41 42 44 35 22 15 9 5 2 360 359 358 357 357 355 354 353 352 349 349 353 355 353 350 350 351 352 349 344 343 346 347 345 343 343 344 344 341 334 332 335 340 344 343 337 333 329 317 306 305 307 316 332 339 339 337 321 307 320 324 317 319 324 323 320 322 321 321 323 324 323 324 326 327 328 329 330
70 68 69 68 72 72 67 63 61 51 38 29 32 34 26 15 9 4 0 358 356 357 357 356 356 355 354 353 351 350 349 350 350 349 348 348 349 349 347 346 346 343 341 340 340 342 344 342 339 336 336 342 353 349 341 340 338 329 314 304 307 307 316 332 340 340 336 326 319 321 320 318 322 323 319 319 320 320 321 324 325 324 326 328 328 329 330 329
70 67 61 54 61 67 60 54 53 44 30 22 23 23 14 7 3 359 356 355 355 355 354 354 354 353 352 352 351 351 351 348 345 343 342 342 346 347 343 341 341 338 335 335 337 341 341 340 342 341 339 346 354 346 340 343 340 328 311 307 313 314 321 333 340 340 335 328 324 323 321 321 323 321 317 318 320 322 323 325 325 326 327 328 328 330 329 325
67 68 61 46 52 63 57 48 45 34 22 18 16 11 3 0 359 356 355 354 353 353 352 351 353 352 351 351 351 351 351 349 346 343 340 338 343 346 341 334 333 334 334 334 335 339 342 343 347 347 342 345 349 343 340 343 339 326 320 322 321 322 325 330 336 337 333 328 325 324 322 321 321 319 319 321 323 325 325 325 326 326 327 327 329 330 326 323
63 65 64 52 50 59 56 46 38 27 20 15 9 3 358 356 355 355 355 354 351 350 350 349 351 351 350 350 352 352 350 349 347 345 343 341 344 348 340 327 327 331 333 333 334 340 345 347 350 351 341 339 345 341 338 342 344 335 332 326 319 322 325 324 328 331 330 326 324 322 321 319 317 319 323 325 326 325 325 325 326 327 328 328 329 327 323 323